Miscellaneous Local Product
Issued by NWS Hastings, NE

Home | Current Version | Previous Version | Graphics & Text | Print | Product List | Glossary On
Versions: 1 2 3 4 5 6 7 8 9 10 11 12 13 14 15 16 17 18 19 20 21 22 23 24 25 26 27 28 29 30 31 32 33 34 35 36 37 38 39 40 41 42 43 44 45 46 47 48 49 50
281
AXUS43 KGID 260502
MISGRI

GID CWA HOURLY WEATHER ROUNDUP
NATIONAL WEATHER SERVICE HASTINGS NE
1200 AM CDT WED JUL 26 2017

NOTE: "FAIR" INDICATES FEW OR NO CLOUDS BELOW 12,000 FEET WITH NO
SIGNIFICANT WEATHER AND/OR OBSTRUCTIONS TO VISIBILITY.

...SOUTH CENTRAL NEBRASKA...

CITY           SKY/WX    TMP DP  RH WIND       PRES   REMARKS
GRAND ISLAND   CLOUDY    82  68  62 S14       29.95R
HASTINGS       CLOUDY    83  66  56 S12G22    29.95R
KEARNEY        CLOUDY    81  66  60 SE16      29.92S
ORD            CLOUDY    84  61  45 VRB7G22   29.91R
YORK           CLOUDY    81  70  69 S10       29.97R
AURORA         CLOUDY    80  67  64 SE13      29.96R
LEXINGTON      CLOUDY    82  68  64 SE8       29.91R
HOLDREGE       CLOUDY    80  64  59 SE12      29.92F
HEBRON         CLOUDY    85  69  59 S15G22    29.96R

...NEBRASKA PANHANDLE...

CITY           SKY/WX    TMP DP  RH WIND       PRES   REMARKS
CHADRON        CLOUDY    77  56  48 N16       30.06R
ALLIANCE       LGT RAIN  71  65  81 N13       30.04R
SCOTTSBLUFF    MOCLDY    78  56  46 N16G24    30.06R
SIDNEY         CLOUDY    76  58  53 N14       30.04R

...WESTERN AND NORTH CENTRAL NEBRASKA...

CITY           SKY/WX    TMP DP  RH WIND       PRES   REMARKS
VALENTINE      CLOUDY    72  66  81 N16G23    29.95F
AINSWORTH      TSTM      70  66  86 E17       29.94F
ONEILL         HVY RAIN  68  68 100 N17G25    30.07R
BROKEN BOW     CLOUDY    82  67  60 NE10G17   29.93R
IMPERIAL       CLOUDY    73  64  73 S8        29.95F
NORTH PLATTE   CLOUDY    80  70  71 S3        29.92S
MCCOOK         CLOUDY    84  66  54 W13G23    29.92R THUNDER

...EASTERN NEBRASKA...

CITY           SKY/WX    TMP DP  RH WIND       PRES   REMARKS
NORFOLK        CLOUDY    82  66  58 SE13G22   29.93S
SO SIOUX CITY  CLOUDY    81  74  79 SE8       29.95F
TEKAMAH        CLOUDY    80  72  76 SE9       29.96S
COLUMBUS       MOCLDY    83  69  62 S14G20    29.95S
ALBION         CLOUDY    83  68  59 SE7       29.94S
OMAHA EPPLEY   CLOUDY    84  72  67 SE15      29.97F
OFFUTT AFB     CLEAR     81  73  78 SE12      29.97F
MILLARD        CLOUDY    83  74  74 SE8       29.97F HX  91
LINCOLN        CLOUDY    84  69  60 S14       29.97S
NEBRASKA CITY  PTCLDY    80  74  83 S7        30.00F
BEATRICE       CLOUDY    83  70  63 SE9       29.98R
FALLS CITY     PTCLDY    78  72  81 SE7       30.00R

...NORTHERN KANSAS...

CITY           SKY/WX    TMP DP  RH WIND       PRES   REMARKS
GOODLAND       CLOUDY    77  62  59 W14       30.00S
HILL CITY      PTCLDY    87  65  47 S16G25    29.91F
NORTON         PTCLDY    88  59  37 SE14G20   29.90F
PHILLIPSBURG   CLEAR     84  66  54 E8        29.91F
SMITH CENTER     N/A     82  64  54 SE14G20   29.93R
HAYS           CLEAR     86  67  52 S15       29.94R
RUSSELL        PTCLDY    87  64  46 S17G24    29.93R
CONCORDIA      CLOUDY    83  70  64 SE16      29.96R
SALINA         PTCLDY    88  67  49 SE14      29.96R HX  91
TOPEKA         CLOUDY    82  73  74 SE8       30.00S



USA.gov is the U.S. government's official web portal to all federal, state and local government web resources and services.